Time,TemperatureF,DewpointF,PressureIn,WindDirection,WindDirectionDegrees,WindSpeedMPH,WindSpeedGustMPH,Humidity,HourlyPrecipIn,Conditions,Clouds,dailyrainin,SolarRadiationWatts/m^2,SoftwareType,DateUTC
2013-02-06 00:00:00,31.3,30.0,29.92,NW,318,0.0,0.0,95,0.00,,,0.01,0.00,VWS V14.01,2013-02-06 05:00:00,
2013-02-06 00:01:00,31.3,30.0,29.91,NW,318,0.0,0.0,95,0.00,,,0.00,0.00,VWS V14.01,2013-02-06 05:01:00,
2013-02-06 00:06:00,31.3,30.0,29.91,NW,319,0.0,0.0,95,0.00,,,0.00,0.00,VWS V14.01,2013-02-06 05:06:00,
2013-02-06 00:11:00,31.2,29.9,29.92,NW,318,0.0,0.0,95,0.00,,,0.00,0.00,VWS V14.01,2013-02-06 05:11:00,
2013-02-06 00:16:00,31.1,29.8,29.92,NW,319,0.0,0.0,95,0.00,,,0.00,0.00,VWS V14.01,2013-02-06 05:16:00,
2013-02-06 00:21:00,31.0,29.7,29.92,NW,318,0.0,0.0,95,0.00,,,0.00,0.00,VWS V14.01,2013-02-06 05:21:00,
2013-02-06 00:26:00,30.9,29.6,29.92,NW,319,0.0,0.0,95,0.00,,,0.00,0.00,VWS V14.01,2013-02-06 05:26:00,
2013-02-06 00:31:00,30.7,29.4,29.92,NW,319,0.0,0.0,95,0.00,,,0.00,0.00,VWS V14.01,2013-02-06 05:31:00,
2013-02-06 00:36:00,30.7,29.4,29.92,NW,319,0.0,0.0,95,0.00,,,0.00,0.00,VWS V14.01,2013-02-06 05:36:00,
2013-02-06 00:41:00,30.7,29.4,29.92,NW,319,0.0,0.0,95,0.00,,,0.00,0.00,VWS V14.01,2013-02-06 05:41:00,
2013-02-06 00:47:00,30.7,29.4,29.92,NW,319,0.0,0.0,95,0.00,,,0.00,0.00,VWS V14.01,2013-02-06 05:47:00,
2013-02-06 00:52:00,30.8,29.5,29.92,NW,319,0.0,0.0,95,0.00,,,0.00,0.00,VWS V14.01,2013-02-06 05:52:00,
2013-02-06 00:57:00,30.8,29.5,29.92,NW,319,0.0,0.0,95,0.00,,,0.00,0.00,VWS V14.01,2013-02-06 05:57:00,
2013-02-06 01:02:00,30.8,29.5,29.92,NW,319,0.0,0.0,95,0.00,,,0.00,0.00,VWS V14.01,2013-02-06 06:02:00,
2013-02-06 01:07:00,30.8,29.5,29.92,NW,319,0.0,0.0,95,0.00,,,0.00,0.00,VWS V14.01,2013-02-06 06:07:00,
2013-02-06 01:12:00,30.8,29.5,29.92,NW,318,0.0,0.0,95,0.00,,,0.00,0.00,VWS V14.01,2013-02-06 06:12:00,
2013-02-06 01:17:00,30.7,29.4,29.92,NW,318,0.0,0.0,95,0.00,,,0.00,0.00,VWS V14.01,2013-02-06 06:17:00,
2013-02-06 01:22:00,30.7,29.4,29.91,NW,319,0.0,0.0,95,0.00,,,0.00,0.00,VWS V14.01,2013-02-06 06:22:00,
2013-02-06 01:27:00,30.7,29.4,29.91,NW,319,0.0,0.0,95,0.00,,,0.00,0.00,VWS V14.01,2013-02-06 06:27:00,
2013-02-06 01:32:00,30.7,29.4,29.92,NW,319,0.0,0.0,95,0.00,,,0.00,0.00,VWS V14.01,2013-02-06 06:32:00,
2013-02-06 01:38:00,30.6,29.3,29.92,NW,319,0.0,0.0,95,0.00,,,0.00,0.00,VWS V14.01,2013-02-06 06:38:00,
2013-02-06 01:43:00,30.6,29.3,29.92,NW,319,0.0,0.0,95,0.00,,,0.00,0.00,VWS V14.01,2013-02-06 06:43:00,
2013-02-06 01:48:00,30.6,29.3,29.92,NW,318,0.0,0.0,95,0.00,,,0.00,0.00,VWS V14.01,2013-02-06 06:48:00,
2013-02-06 01:53:00,30.7,29.4,29.91,NW,319,0.0,0.0,95,0.00,,,0.00,0.00,VWS V14.01,2013-02-06 06:53:00,
2013-02-06 01:58:00,30.7,29.4,29.92,NW,319,0.0,0.0,95,0.00,,,0.00,0.00,VWS V14.01,2013-02-06 06:58:00,
2013-02-06 02:03:00,30.8,29.5,29.92,NW,319,0.0,0.0,95,0.00,,,0.00,0.00,VWS V14.01,2013-02-06 07:03:00,
2013-02-06 02:08:00,30.8,29.8,29.92,NW,318,0.0,0.0,96,0.00,,,0.00,0.00,VWS V14.01,2013-02-06 07:08:00,
2013-02-06 02:13:00,31.0,30.0,29.92,NW,318,0.0,0.0,96,0.00,,,0.00,0.00,VWS V14.01,2013-02-06 07:13:00,
2013-02-06 02:18:00,31.1,30.1,29.92,NW,319,0.0,0.0,96,0.00,,,0.00,0.00,VWS V14.01,2013-02-06 07:18:00,
2013-02-06 02:23:00,31.2,30.2,29.93,NW,319,0.0,0.0,96,0.00,,,0.00,0.00,VWS V14.01,2013-02-06 07:23:00,
2013-02-06 02:28:00,31.2,30.2,29.93,NW,318,0.0,0.0,96,0.00,,,0.00,0.00,VWS V14.01,2013-02-06 07:28:00,
2013-02-06 02:33:00,31.2,30.2,29.93,NW,319,0.0,0.0,96,0.00,,,0.00,0.00,VWS V14.01,2013-02-06 07:33:00,
2013-02-06 02:39:00,31.3,30.3,29.93,NW,319,0.0,0.0,96,0.00,,,0.00,0.00,VWS V14.01,2013-02-06 07:39:00,
2013-02-06 02:44:00,31.3,30.3,29.93,NW,318,0.0,0.0,96,0.00,,,0.00,0.00,VWS V14.01,2013-02-06 07:44:00,
2013-02-06 02:49:00,31.3,30.3,29.93,NW,319,0.0,0.0,96,0.00,,,0.00,0.00,VWS V14.01,2013-02-06 07:49:00,
2013-02-06 02:54:00,31.3,30.3,29.93,NW,319,0.0,0.0,96,0.00,,,0.00,0.00,VWS V14.01,2013-02-06 07:54:00,
2013-02-06 02:59:00,31.3,30.3,29.93,NW,319,0.0,0.0,96,0.00,,,0.00,0.00,VWS V14.01,2013-02-06 07:59:00,
2013-02-06 03:04:00,31.4,30.4,29.93,NW,319,0.0,0.0,96,0.00,,,0.00,0.00,VWS V14.01,2013-02-06 08:04:00,
2013-02-06 03:09:00,31.4,30.4,29.93,NW,319,0.0,0.0,96,0.00,,,0.00,0.00,VWS V14.01,2013-02-06 08:09:00,
2013-02-06 03:14:00,31.5,30.5,29.94,NW,319,0.0,0.0,96,0.00,,,0.00,0.00,VWS V14.01,2013-02-06 08:14:00,
2013-02-06 03:19:00,31.5,30.5,29.94,NW,319,0.0,0.0,96,0.00,,,0.00,0.00,VWS V14.01,2013-02-06 08:19:00,
2013-02-06 03:24:00,31.5,30.5,29.94,NW,319,0.0,0.0,96,0.00,,,0.00,0.00,VWS V14.01,2013-02-06 08:24:00,
2013-02-06 03:29:00,31.5,30.5,29.95,NW,318,0.0,0.0,96,0.00,,,0.00,0.00,VWS V14.01,2013-02-06 08:29:00,
2013-02-06 03:34:00,31.5,30.5,29.95,NW,318,0.0,1.0,96,0.00,,,0.00,0.00,VWS V14.01,2013-02-06 08:34:00,
2013-02-06 03:40:00,31.5,30.5,29.95,NW,318,0.0,1.0,96,0.00,,,0.00,0.00,VWS V14.01,2013-02-06 08:40:00,
2013-02-06 03:45:00,31.5,30.5,29.95,NW,319,0.0,0.0,96,0.00,,,0.00,0.00,VWS V14.01,2013-02-06 08:45:00,
2013-02-06 03:50:00,31.5,30.5,29.96,NW,318,0.0,0.0,96,0.00,,,0.00,0.00,VWS V14.01,2013-02-06 08:50:00,
2013-02-06 03:55:00,31.5,30.5,29.96,NW,318,0.0,0.0,96,0.00,,,0.00,0.00,VWS V14.01,2013-02-06 08:55:00,
2013-02-06 04:00:00,31.5,30.5,29.96,NW,319,0.0,0.0,96,0.00,,,0.00,0.00,VWS V14.01,2013-02-06 09:00:00,
2013-02-06 04:05:00,31.5,30.5,29.96,NW,318,0.0,0.0,96,0.00,,,0.00,0.00,VWS V14.01,2013-02-06 09:05:00,
2013-02-06 04:10:00,31.6,30.6,29.96,NW,319,0.0,0.0,96,0.00,,,0.00,0.00,VWS V14.01,2013-02-06 09:10:00,
2013-02-06 04:15:00,31.6,30.6,29.96,NW,319,0.0,0.0,96,0.00,,,0.00,0.00,VWS V14.01,2013-02-06 09:15:00,
2013-02-06 04:20:00,31.7,30.7,29.97,NW,318,0.0,0.0,96,0.00,,,0.00,0.00,VWS V14.01,2013-02-06 09:20:00,
2013-02-06 04:25:00,31.7,30.7,29.97,NW,318,0.0,0.0,96,0.00,,,0.00,0.00,VWS V14.01,2013-02-06 09:25:00,
2013-02-06 04:30:00,31.8,30.8,29.97,NW,319,0.0,0.0,96,0.00,,,0.00,0.00,VWS V14.01,2013-02-06 09:30:00,
2013-02-06 04:36:00,31.9,30.9,29.98,NW,319,0.0,0.0,96,0.00,,,0.00,0.00,VWS V14.01,2013-02-06 09:36:00,
2013-02-06 04:41:00,32.0,31.0,29.99,NW,319,0.0,0.0,96,0.00,,,0.00,0.00,VWS V14.01,2013-02-06 09:41:00,
2013-02-06 04:46:00,32.2,31.2,29.99,North,9,2.0,3.0,96,0.00,,,0.00,0.00,VWS V14.01,2013-02-06 09:46:00,
2013-02-06 04:51:00,32.3,31.3,29.99,North,5,0.0,0.0,96,0.00,,,0.00,0.00,VWS V14.01,2013-02-06 09:51:00,
2013-02-06 04:56:00,32.5,31.5,30.00,North,350,3.0,3.0,96,0.00,,,0.00,0.00,VWS V14.01,2013-02-06 09:56:00,
2013-02-06 05:01:00,32.7,31.7,30.00,North,355,5.0,5.0,96,0.00,,,0.00,0.00,VWS V14.01,2013-02-06 10:01:00,
2013-02-06 05:06:00,32.8,31.8,30.00,North,355,4.0,5.0,96,0.00,,,0.00,0.00,VWS V14.01,2013-02-06 10:06:00,
2013-02-06 05:11:00,32.9,31.9,30.00,NNW,331,2.0,2.0,96,0.00,,,0.00,0.00,VWS V14.01,2013-02-06 10:11:00,
2013-02-06 05:16:00,33.0,31.7,30.01,NNW,343,2.0,4.0,95,0.00,,,0.00,0.00,VWS V14.01,2013-02-06 10:16:00,
2013-02-06 05:21:00,33.1,31.8,30.01,NNW,329,2.0,4.0,95,0.00,,,0.00,0.00,VWS V14.01,2013-02-06 10:21:00,
2013-02-06 05:27:00,33.2,31.9,30.01,NW,314,4.0,4.0,95,0.00,,,0.00,0.00,VWS V14.01,2013-02-06 10:27:00,
2013-02-06 05:32:00,33.4,32.1,30.01,NNW,331,3.0,5.0,95,0.00,,,0.00,0.00,VWS V14.01,2013-02-06 10:32:00,
2013-02-06 05:37:00,33.6,32.3,30.01,NNW,337,4.0,4.0,95,0.00,,,0.00,0.00,VWS V14.01,2013-02-06 10:37:00,
2013-02-06 05:42:00,33.7,32.2,30.01,North,355,2.0,5.0,94,0.00,,,0.00,0.00,VWS V14.01,2013-02-06 10:42:00,
2013-02-06 05:47:00,33.8,32.0,30.01,NNW,336,2.0,5.0,93,0.00,,,0.00,0.00,VWS V14.01,2013-02-06 10:47:00,
2013-02-06 05:52:00,33.9,32.1,30.01,North,355,3.0,5.0,93,0.00,,,0.00,0.00,VWS V14.01,2013-02-06 10:52:00,
2013-02-06 05:57:00,34.0,31.9,30.02,NNW,347,3.0,6.0,92,0.00,,,0.00,0.00,VWS V14.01,2013-02-06 10:57:00,
2013-02-06 06:02:00,34.1,31.8,30.02,North,355,4.0,6.0,91,0.00,,,0.00,0.00,VWS V14.01,2013-02-06 11:02:00,
2013-02-06 06:07:00,34.1,31.8,30.03,NNW,329,2.0,6.0,91,0.00,,,0.00,0.00,VWS V14.01,2013-02-06 11:07:00,
2013-02-06 06:13:00,34.2,31.6,30.03,NNW,338,4.0,5.0,90,0.00,,,0.00,0.00,VWS V14.01,2013-02-06 11:13:00,
2013-02-06 06:18:00,34.3,31.7,30.03,NNW,330,4.0,6.0,90,0.00,,,0.00,0.00,VWS V14.01,2013-02-06 11:18:00,
2013-02-06 06:23:00,34.4,31.5,30.04,North,350,3.0,6.0,89,0.00,,,0.00,0.00,VWS V14.01,2013-02-06 11:23:00,
2013-02-06 06:28:00,34.4,31.5,30.04,North,350,6.0,7.0,89,0.00,,,0.00,0.00,VWS V14.01,2013-02-06 11:28:00,
2013-02-06 06:33:00,34.4,31.2,30.05,NW,318,5.0,11.0,88,0.00,,,0.00,0.00,VWS V14.01,2013-02-06 11:33:00,
2013-02-06 06:38:00,34.4,30.9,30.05,NNW,330,6.0,9.0,87,0.00,,,0.00,0.00,VWS V14.01,2013-02-06 11:38:00,
2013-02-06 06:43:00,34.4,30.9,30.05,North,350,5.0,10.0,87,0.00,,,0.00,0.00,VWS V14.01,2013-02-06 11:43:00,
2013-02-06 06:48:00,34.5,30.8,30.06,North,351,4.0,11.0,86,0.00,,,0.00,0.00,VWS V14.01,2013-02-06 11:48:00,
2013-02-06 06:54:00,34.6,30.6,30.06,NW,325,5.0,10.0,85,0.00,,,0.00,0.00,VWS V14.01,2013-02-06 11:54:00,
2013-02-06 06:59:00,34.7,30.7,30.06,NW,323,5.0,10.0,85,0.00,,,0.00,0.00,VWS V14.01,2013-02-06 11:59:00,
2013-02-06 07:04:00,34.8,30.5,30.06,NNW,337,9.0,11.0,84,0.00,,,0.00,0.00,VWS V14.01,2013-02-06 12:04:00,
2013-02-06 07:09:00,34.8,30.5,30.06,NW,324,6.0,12.0,84,0.00,,,0.00,0.00,VWS V14.01,2013-02-06 12:09:00,
2013-02-06 07:14:00,34.9,30.6,30.07,NNW,337,4.0,10.0,84,0.00,,,0.00,0.00,VWS V14.01,2013-02-06 12:14:00,
2013-02-06 07:19:00,34.9,30.3,30.07,NNW,340,7.0,12.0,83,0.00,,,0.00,0.00,VWS V14.01,2013-02-06 12:19:00,
2013-02-06 07:24:00,35.0,30.4,30.07,NNW,345,6.0,11.0,83,0.00,,,0.00,0.00,VWS V14.01,2013-02-06 12:24:00,
2013-02-06 07:29:00,35.0,30.1,30.08,NNW,332,3.0,10.0,82,0.00,,,0.00,0.00,VWS V14.01,2013-02-06 12:29:00,
2013-02-06 07:34:00,35.0,30.1,30.08,WNW,302,8.0,9.0,82,0.00,,,0.00,5.00,VWS V14.01,2013-02-06 12:34:00,
2013-02-06 07:40:00,35.0,30.1,30.09,NNW,337,8.0,12.0,82,0.00,,,0.00,5.00,VWS V14.01,2013-02-06 12:40:00,
2013-02-06 07:45:00,35.1,29.9,30.10,NW,319,4.0,11.0,81,0.00,,,0.00,9.00,VWS V14.01,2013-02-06 12:45:00,
2013-02-06 07:50:00,35.2,29.7,30.11,NW,323,5.0,13.0,80,0.00,,,0.00,11.00,VWS V14.01,2013-02-06 12:50:00,
2013-02-06 07:55:00,35.3,29.5,30.11,NW,325,2.0,9.0,79,0.00,,,0.00,9.00,VWS V14.01,2013-02-06 12:55:00,
2013-02-06 08:00:00,35.3,29.5,30.11,NW,322,0.0,6.0,79,0.00,,,0.00,12.00,VWS V14.01,2013-02-06 13:00:00,
2013-02-06 08:05:00,35.3,29.5,30.12,NNW,328,3.0,5.0,79,0.00,,,0.00,12.00,VWS V14.01,2013-02-06 13:05:00,
2013-02-06 08:10:00,35.3,29.5,30.12,NNW,347,5.0,5.0,79,0.00,,,0.00,12.00,VWS V14.01,2013-02-06 13:10:00,
2013-02-06 08:15:00,35.3,29.5,30.12,NNW,339,0.0,0.0,79,0.00,,,0.00,14.00,VWS V14.01,2013-02-06 13:15:00,
2013-02-06 08:20:00,35.2,29.0,30.12,WNW,301,5.0,6.0,78,0.00,,,0.00,18.00,VWS V14.01,2013-02-06 13:20:00,
2013-02-06 08:25:00,35.2,29.0,30.12,WNW,298,0.0,4.0,78,0.00,,,0.00,19.00,VWS V14.01,2013-02-06 13:25:00,
2013-02-06 08:30:00,35.1,28.6,30.13,NW,315,0.0,0.0,77,0.00,,,0.00,19.00,VWS V14.01,2013-02-06 13:30:00,
2013-02-06 08:36:00,35.1,28.6,30.13,NNW,327,2.0,2.0,77,0.00,,,0.00,25.00,VWS V14.01,2013-02-06 13:36:00,
2013-02-06 08:41:00,35.1,28.3,30.13,NNW,334,0.0,4.0,76,0.00,,,0.00,26.00,VWS V14.01,2013-02-06 13:41:00,
2013-02-06 08:46:00,35.1,28.3,30.13,NNW,329,5.0,5.0,76,0.00,,,0.00,32.00,VWS V14.01,2013-02-06 13:46:00,
2013-02-06 08:51:00,35.1,28.3,30.13,NW,314,3.0,4.0,76,0.00,,,0.00,39.00,VWS V14.01,2013-02-06 13:51:00,
2013-02-06 08:56:00,35.1,28.0,30.13,NNW,344,3.0,7.0,75,0.00,,,0.00,53.00,VWS V14.01,2013-02-06 13:56:00,
2013-02-06 09:01:00,35.1,28.0,30.13,North,349,4.0,8.0,75,0.00,,,0.00,53.00,VWS V14.01,2013-02-06 14:01:00,
2013-02-06 09:06:00,35.1,28.0,30.14,NW,313,9.0,9.0,75,0.00,,,0.00,58.00,VWS V14.01,2013-02-06 14:06:00,
2013-02-06 09:11:00,35.0,27.9,30.14,North,360,4.0,9.0,75,0.00,,,0.00,54.00,VWS V14.01,2013-02-06 14:11:00,
2013-02-06 09:16:00,35.0,27.9,30.14,NW,321,3.0,6.0,75,0.00,,,0.00,65.00,VWS V14.01,2013-02-06 14:16:00,
2013-02-06 09:22:00,35.0,27.9,30.14,NW,313,4.0,9.0,75,0.00,,,0.00,70.00,VWS V14.01,2013-02-06 14:22:00,
2013-02-06 09:27:00,35.1,28.0,30.14,NW,315,5.0,12.0,75,0.00,,,0.00,65.00,VWS V14.01,2013-02-06 14:27:00,
2013-02-06 09:32:00,35.1,28.0,30.15,NW,312,3.0,3.0,75,0.00,,,0.00,84.00,VWS V14.01,2013-02-06 14:32:00,
2013-02-06 09:37:00,35.2,28.1,30.15,WNW,288,0.0,1.0,75,0.00,,,0.00,95.00,VWS V14.01,2013-02-06 14:37:00,
2013-02-06 09:42:00,35.3,28.2,30.15,West,277,0.0,5.0,75,0.00,,,0.00,98.00,VWS V14.01,2013-02-06 14:42:00,
2013-02-06 09:47:00,35.4,28.3,30.16,WSW,253,0.0,4.0,75,0.00,,,0.00,90.00,VWS V14.01,2013-02-06 14:47:00,
2013-02-06 09:52:00,35.5,28.4,30.16,WSW,253,0.0,0.0,75,0.00,,,0.00,93.00,VWS V14.01,2013-02-06 14:52:00,
2013-02-06 09:57:00,35.7,28.6,30.16,West,269,0.0,3.0,75,0.00,,,0.00,107.00,VWS V14.01,2013-02-06 14:57:00,
2013-02-06 10:02:00,35.9,28.8,30.16,West,277,0.0,3.0,75,0.00,,,0.00,105.00,VWS V14.01,2013-02-06 15:02:00,
2013-02-06 10:07:00,36.1,28.6,30.16,WSW,254,0.0,0.0,74,0.00,,,0.00,109.00,VWS V14.01,2013-02-06 15:07:00,
2013-02-06 10:13:00,36.2,28.7,30.17,WSW,252,3.0,4.0,74,0.00,,,0.00,109.00,VWS V14.01,2013-02-06 15:13:00,
2013-02-06 10:18:00,36.4,28.6,30.17,NW,309,1.0,3.0,73,0.00,,,0.00,118.00,VWS V14.01,2013-02-06 15:18:00,
2013-02-06 10:23:00,36.4,28.6,30.17,NW,311,0.0,8.0,73,0.00,,,0.00,137.00,VWS V14.01,2013-02-06 15:23:00,
2013-02-06 10:28:00,36.5,28.4,30.16,NW,323,4.0,9.0,72,0.00,,,0.00,118.00,VWS V14.01,2013-02-06 15:28:00,
2013-02-06 10:33:00,36.5,28.4,30.17,WNW,292,0.0,4.0,72,0.00,,,0.00,107.00,VWS V14.01,2013-02-06 15:33:00,
2013-02-06 10:38:00,36.6,28.4,30.17,WSW,238,0.0,6.0,72,0.00,,,0.00,95.00,VWS V14.01,2013-02-06 15:38:00,
2013-02-06 10:43:00,36.6,28.1,30.17,NNW,333,2.0,8.0,71,0.00,,,0.00,107.00,VWS V14.01,2013-02-06 15:43:00,
2013-02-06 10:49:00,36.6,28.4,30.17,WNW,293,0.0,1.0,72,0.00,,,0.00,98.00,VWS V14.01,2013-02-06 15:49:00,
2013-02-06 10:54:00,36.6,28.1,30.17,NNW,329,2.0,4.0,71,0.00,,,0.00,104.00,VWS V14.01,2013-02-06 15:54:00,
2013-02-06 10:59:00,36.6,28.1,30.17,NW,304,3.0,5.0,71,0.00,,,0.00,95.00,VWS V14.01,2013-02-06 15:59:00,
2013-02-06 11:04:00,36.7,28.2,30.18,NW,318,2.0,6.0,71,0.00,,,0.00,113.00,VWS V14.01,2013-02-06 16:04:00,
2013-02-06 11:09:00,36.7,28.2,30.18,NW,312,1.0,6.0,71,0.00,,,0.00,97.00,VWS V14.01,2013-02-06 16:09:00,
2013-02-06 11:14:00,36.7,28.2,30.18,West,277,0.0,7.0,71,0.00,,,0.00,109.00,VWS V14.01,2013-02-06 16:14:00,
2013-02-06 11:19:00,36.8,28.3,30.18,NW,326,7.0,7.0,71,0.00,,,0.00,102.00,VWS V14.01,2013-02-06 16:19:00,
2013-02-06 11:24:00,36.8,28.3,30.18,NW,318,0.0,6.0,71,0.00,,,0.00,102.00,VWS V14.01,2013-02-06 16:24:00,
2013-02-06 11:30:00,36.8,28.3,30.18,NW,323,0.0,6.0,71,0.00,,,0.00,102.00,VWS V14.01,2013-02-06 16:30:00,
2013-02-06 11:35:00,36.9,28.4,30.18,NNW,345,2.0,4.0,71,0.00,,,0.00,84.00,VWS V14.01,2013-02-06 16:35:00,
2013-02-06 11:40:00,36.9,28.4,30.19,NW,305,4.0,6.0,71,0.00,,,0.00,102.00,VWS V14.01,2013-02-06 16:40:00,
2013-02-06 11:45:00,36.9,28.4,30.18,WNW,296,0.0,7.0,71,0.00,,,0.00,123.00,VWS V14.01,2013-02-06 16:45:00,
2013-02-06 11:50:00,36.9,28.4,30.19,NW,317,2.0,5.0,71,0.00,,,0.00,105.00,VWS V14.01,2013-02-06 16:50:00,
2013-02-06 11:55:00,36.9,28.0,30.18,WNW,302,3.0,9.0,70,0.00,,,0.00,123.00,VWS V14.01,2013-02-06 16:55:00,
2013-02-06 12:00:00,36.9,28.4,30.19,NNW,331,1.0,9.0,71,0.00,,,0.00,118.00,VWS V14.01,2013-02-06 17:00:00,
2013-02-06 12:05:00,36.8,28.3,30.19,WNW,293,4.0,6.0,71,0.00,,,0.00,141.00,VWS V14.01,2013-02-06 17:05:00,
2013-02-06 12:10:00,36.8,28.3,30.19,NW,317,8.0,8.0,71,0.00,,,0.00,113.00,VWS V14.01,2013-02-06 17:10:00,
2013-02-06 12:15:00,36.8,28.3,30.19,NW,323,3.0,6.0,71,0.00,,,0.00,109.00,VWS V14.01,2013-02-06 17:15:00,
2013-02-06 12:21:00,36.8,28.3,30.19,NW,320,1.0,1.0,71,0.00,,,0.00,167.00,VWS V14.01,2013-02-06 17:21:00,
2013-02-06 12:26:00,36.9,28.7,30.19,NW,322,1.0,5.0,72,0.00,,,0.00,156.00,VWS V14.01,2013-02-06 17:26:00,
2013-02-06 12:31:00,36.9,28.0,30.20,NW,319,4.0,7.0,70,0.00,,,0.00,97.00,VWS V14.01,2013-02-06 17:31:00,
2013-02-06 12:36:00,37.0,28.1,30.20,NW,323,4.0,4.0,70,0.00,,,0.00,167.00,VWS V14.01,2013-02-06 17:36:00,
2013-02-06 12:41:00,37.0,28.1,30.20,NW,311,2.0,7.0,70,0.00,,,0.00,148.00,VWS V14.01,2013-02-06 17:41:00,
2013-02-06 12:46:00,37.1,27.5,30.20,West,279,5.0,7.0,68,0.00,,,0.00,146.00,VWS V14.01,2013-02-06 17:46:00,
2013-02-06 12:51:00,37.1,27.2,30.20,NW,320,5.0,9.0,67,0.00,,,0.00,155.00,VWS V14.01,2013-02-06 17:51:00,
2013-02-06 12:56:00,37.1,26.8,30.20,NW,311,9.0,11.0,66,0.00,,,0.00,149.00,VWS V14.01,2013-02-06 17:56:00,
2013-02-06 13:01:00,37.1,26.8,30.20,WNW,294,0.0,4.0,66,0.00,,,0.00,151.00,VWS V14.01,2013-02-06 18:01:00,
2013-02-06 13:07:00,37.1,26.8,30.20,NW,313,5.0,11.0,66,0.00,,,0.00,163.00,VWS V14.01,2013-02-06 18:07:00,
2013-02-06 13:12:00,37.1,26.8,30.20,NW,311,5.0,7.0,66,0.00,,,0.00,156.00,VWS V14.01,2013-02-06 18:12:00,
2013-02-06 13:17:00,37.2,26.9,30.20,NW,325,4.0,5.0,66,0.00,,,0.00,144.00,VWS V14.01,2013-02-06 18:17:00,
2013-02-06 13:22:00,37.1,26.1,30.20,NW,326,9.0,9.0,64,0.00,,,0.00,135.00,VWS V14.01,2013-02-06 18:22:00,
2013-02-06 13:27:00,37.1,26.4,30.20,NW,317,2.0,7.0,65,0.00,,,0.00,128.00,VWS V14.01,2013-02-06 18:27:00,
2013-02-06 13:32:00,37.1,26.4,30.20,WNW,287,1.0,12.0,65,0.00,,,0.00,120.00,VWS V14.01,2013-02-06 18:32:00,
2013-02-06 13:37:00,37.1,26.4,30.20,NNW,343,7.0,10.0,65,0.00,,,0.00,127.00,VWS V14.01,2013-02-06 18:37:00,
2013-02-06 13:42:00,37.1,26.4,30.20,NNW,329,3.0,7.0,65,0.00,,,0.00,130.00,VWS V14.01,2013-02-06 18:42:00,
2013-02-06 13:47:00,37.3,26.6,30.20,NNW,330,3.0,5.0,65,0.00,,,0.00,132.00,VWS V14.01,2013-02-06 18:47:00,
2013-02-06 13:53:00,37.3,26.6,30.20,NW,306,3.0,9.0,65,0.00,,,0.00,132.00,VWS V14.01,2013-02-06 18:53:00,
2013-02-06 13:58:00,37.3,26.6,30.20,NW,310,0.0,8.0,65,0.00,,,0.00,137.00,VWS V14.01,2013-02-06 18:58:00,
2013-02-06 14:03:00,37.5,26.8,30.20,NW,307,0.0,2.0,65,0.00,,,0.00,174.00,VWS V14.01,2013-02-06 19:03:00,
2013-02-06 14:08:00,37.6,26.9,30.20,NW,314,4.0,7.0,65,0.00,,,0.00,183.00,VWS V14.01,2013-02-06 19:08:00,
2013-02-06 14:13:00,37.6,26.9,30.20,NW,315,1.0,8.0,65,0.00,,,0.00,200.00,VWS V14.01,2013-02-06 19:13:00,
2013-02-06 14:18:00,37.8,27.1,30.20,NW,325,4.0,8.0,65,0.00,,,0.00,204.00,VWS V14.01,2013-02-06 19:18:00,
2013-02-06 14:23:00,37.8,26.7,30.20,NW,307,0.0,6.0,64,0.00,,,0.00,186.00,VWS V14.01,2013-02-06 19:23:00,
2013-02-06 14:28:00,37.9,26.8,30.21,NNW,329,3.0,8.0,64,0.00,,,0.00,197.00,VWS V14.01,2013-02-06 19:28:00,
2013-02-06 14:33:00,37.9,27.2,30.21,WNW,298,3.0,5.0,65,0.00,,,0.00,163.00,VWS V14.01,2013-02-06 19:33:00,
2013-02-06 14:38:00,38.0,26.9,30.21,WNW,300,6.0,7.0,64,0.00,,,0.00,134.00,VWS V14.01,2013-02-06 19:38:00,
2013-02-06 14:43:00,38.0,27.3,30.21,NNW,340,5.0,8.0,65,0.00,,,0.00,121.00,VWS V14.01,2013-02-06 19:43:00,
2013-02-06 14:49:00,37.9,27.2,30.21,NNW,329,6.0,10.0,65,0.00,,,0.00,158.00,VWS V14.01,2013-02-06 19:49:00,
2013-02-06 14:54:00,37.7,27.0,30.21,NW,313,4.0,9.0,65,0.00,,,0.00,148.00,VWS V14.01,2013-02-06 19:54:00,
2013-02-06 14:59:00,37.6,26.9,30.21,NW,313,3.0,11.0,65,0.00,,,0.00,204.00,VWS V14.01,2013-02-06 19:59:00,
2013-02-06 15:04:00,37.7,27.0,30.21,NNW,327,1.0,8.0,65,0.00,,,0.00,149.00,VWS V14.01,2013-02-06 20:04:00,
2013-02-06 15:09:00,37.8,27.1,30.21,NW,310,3.0,11.0,65,0.00,,,0.00,162.00,VWS V14.01,2013-02-06 20:09:00,
2013-02-06 15:14:00,37.8,27.1,30.21,NW,317,2.0,7.0,65,0.00,,,0.00,165.00,VWS V14.01,2013-02-06 20:14:00,
2013-02-06 15:19:00,37.9,27.2,30.22,NW,313,3.0,6.0,65,0.00,,,0.00,160.00,VWS V14.01,2013-02-06 20:19:00,
2013-02-06 15:24:00,38.0,27.3,30.22,NNW,327,2.0,9.0,65,0.00,,,0.00,155.00,VWS V14.01,2013-02-06 20:24:00,
2013-02-06 15:29:00,38.1,27.4,30.22,NNW,338,3.0,7.0,65,0.00,,,0.00,130.00,VWS V14.01,2013-02-06 20:29:00,
2013-02-06 15:35:00,38.0,27.3,30.22,NNW,329,7.0,10.0,65,0.00,,,0.00,123.00,VWS V14.01,2013-02-06 20:35:00,
2013-02-06 15:40:00,37.9,26.8,30.22,NNW,340,7.0,9.0,64,0.00,,,0.00,121.00,VWS V14.01,2013-02-06 20:40:00,
2013-02-06 15:45:00,37.9,27.2,30.22,NNW,348,5.0,9.0,65,0.00,,,0.00,146.00,VWS V14.01,2013-02-06 20:45:00,
2013-02-06 15:50:00,37.9,27.2,30.22,NNW,338,2.0,11.0,65,0.00,,,0.00,155.00,VWS V14.01,2013-02-06 20:50:00,
2013-02-06 15:55:00,37.9,27.2,30.22,NW,326,7.0,10.0,65,0.00,,,0.00,134.00,VWS V14.01,2013-02-06 20:55:00,
2013-02-06 16:00:00,38.0,27.3,30.22,North,355,4.0,7.0,65,0.00,,,0.00,225.00,VWS V14.01,2013-02-06 21:00:00,
2013-02-06 16:05:00,38.0,27.3,30.22,NW,313,7.0,9.0,65,0.00,,,0.00,91.00,VWS V14.01,2013-02-06 21:05:00,
2013-02-06 16:10:00,37.9,26.8,30.23,NW,322,5.0,10.0,64,0.00,,,0.00,130.00,VWS V14.01,2013-02-06 21:10:00,
2013-02-06 16:15:00,37.8,27.1,30.23,WNW,301,4.0,5.0,65,0.00,,,0.00,105.00,VWS V14.01,2013-02-06 21:15:00,
2013-02-06 16:20:00,37.8,27.5,30.24,NNW,334,4.0,5.0,66,0.00,,,0.00,98.00,VWS V14.01,2013-02-06 21:20:00,
2013-02-06 16:25:00,37.7,27.0,30.24,NW,324,6.0,6.0,65,0.00,,,0.00,84.00,VWS V14.01,2013-02-06 21:25:00,
2013-02-06 16:31:00,37.7,27.0,30.24,NNW,328,7.0,12.0,65,0.00,,,0.00,77.00,VWS V14.01,2013-02-06 21:31:00,
2013-02-06 16:36:00,37.5,26.8,30.24,NNW,328,10.0,10.0,65,0.00,,,0.00,56.00,VWS V14.01,2013-02-06 21:36:00,
2013-02-06 16:41:00,37.4,26.7,30.24,NNW,337,10.0,10.0,65,0.00,,,0.00,62.00,VWS V14.01,2013-02-06 21:41:00,
2013-02-06 16:46:00,37.3,27.0,30.24,NW,324,4.0,9.0,66,0.00,,,0.00,44.00,VWS V14.01,2013-02-06 21:46:00,
2013-02-06 16:51:00,37.2,26.9,30.24,NNW,340,3.0,10.0,66,0.00,,,0.00,42.00,VWS V14.01,2013-02-06 21:51:00,
2013-02-06 16:56:00,37.0,26.7,30.24,NNW,332,8.0,8.0,66,0.00,,,0.00,42.00,VWS V14.01,2013-02-06 21:56:00,
2013-02-06 17:01:00,36.9,26.6,30.25,NNW,333,4.0,7.0,66,0.00,,,0.00,33.00,VWS V14.01,2013-02-06 22:01:00,
2013-02-06 17:06:00,36.8,26.5,30.25,North,9,8.0,10.0,66,0.00,,,0.00,28.00,VWS V14.01,2013-02-06 22:06:00,
2013-02-06 17:11:00,36.7,26.4,30.25,NNW,340,2.0,4.0,66,0.00,,,0.00,25.00,VWS V14.01,2013-02-06 22:11:00,
2013-02-06 17:16:00,36.5,26.2,30.25,North,5,7.0,8.0,66,0.00,,,0.00,18.00,VWS V14.01,2013-02-06 22:16:00,
2013-02-06 17:22:00,36.4,26.1,30.25,North,360,7.0,8.0,66,0.00,,,0.00,12.00,VWS V14.01,2013-02-06 22:22:00,
2013-02-06 17:27:00,36.2,26.3,30.25,NNW,340,3.0,7.0,67,0.00,,,0.00,9.00,VWS V14.01,2013-02-06 22:27:00,
2013-02-06 17:32:00,36.1,26.2,30.25,NNW,348,4.0,9.0,67,0.00,,,0.00,7.00,VWS V14.01,2013-02-06 22:32:00,
2013-02-06 17:37:00,35.9,26.0,30.26,NNW,348,3.0,5.0,67,0.00,,,0.00,5.00,VWS V14.01,2013-02-06 22:37:00,
2013-02-06 17:42:00,35.7,26.2,30.26,North,355,2.0,4.0,68,0.00,,,0.00,0.00,VWS V14.01,2013-02-06 22:42:00,
2013-02-06 17:47:00,35.6,26.1,30.26,NNW,339,4.0,4.0,68,0.00,,,0.00,0.00,VWS V14.01,2013-02-06 22:47:00,
2013-02-06 17:52:00,35.4,25.9,30.26,NNW,345,2.0,4.0,68,0.00,,,0.00,0.00,VWS V14.01,2013-02-06 22:52:00,
2013-02-06 17:57:00,35.3,25.8,30.27,NNW,345,0.0,0.0,68,0.00,,,0.00,0.00,VWS V14.01,2013-02-06 22:57:00,
2013-02-06 18:02:00,35.2,25.7,30.27,NNW,346,0.0,0.0,68,0.00,,,0.00,0.00,VWS V14.01,2013-02-06 23:02:00,
2013-02-06 18:08:00,35.1,25.6,30.27,NW,325,3.0,3.0,68,0.00,,,0.00,0.00,VWS V14.01,2013-02-06 23:08:00,
2013-02-06 18:13:00,34.9,25.8,30.27,NW,323,2.0,3.0,69,0.00,,,0.00,0.00,VWS V14.01,2013-02-06 23:13:00,
2013-02-06 18:18:00,34.8,25.7,30.27,NW,317,1.0,6.0,69,0.00,,,0.00,0.00,VWS V14.01,2013-02-06 23:18:00,
2013-02-06 18:23:00,34.8,25.7,30.27,NW,311,1.0,4.0,69,0.00,,,0.00,0.00,VWS V14.01,2013-02-06 23:23:00,
2013-02-06 18:28:00,34.7,25.6,30.27,NNW,330,1.0,5.0,69,0.00,,,0.00,0.00,VWS V14.01,2013-02-06 23:28:00,
2013-02-06 18:33:00,34.6,25.5,30.27,NNW,330,0.0,0.0,69,0.00,,,0.00,0.00,VWS V14.01,2013-02-06 23:33:00,
2013-02-06 18:38:00,34.4,25.3,30.28,NNW,330,0.0,0.0,69,0.00,,,0.00,0.00,VWS V14.01,2013-02-06 23:38:00,
2013-02-06 18:43:00,34.4,25.3,30.29,NE,42,0.0,1.0,69,0.00,,,0.00,0.00,VWS V14.01,2013-02-06 23:43:00,
2013-02-06 18:48:00,34.4,25.3,30.28,NE,42,0.0,0.0,69,0.00,,,0.00,0.00,VWS V14.01,2013-02-06 23:48:00,
2013-02-06 18:53:00,34.1,25.0,30.28,NE,42,0.0,0.0,69,0.00,,,0.00,0.00,VWS V14.01,2013-02-06 23:53:00,
2013-02-06 18:58:00,33.9,24.8,30.29,NE,42,0.0,0.0,69,0.00,,,0.00,0.00,VWS V14.01,2013-02-06 23:58:00,
2013-02-06 19:04:00,33.7,24.6,30.28,NE,42,0.0,0.0,69,0.00,,,0.00,0.00,VWS V14.01,2013-02-07 00:04:00,
2013-02-06 19:09:00,33.4,24.7,30.28,NE,42,0.0,0.0,70,0.00,,,0.00,0.00,VWS V14.01,2013-02-07 00:09:00,
2013-02-06 19:14:00,32.9,24.2,30.28,NE,42,0.0,0.0,70,0.00,,,0.00,0.00,VWS V14.01,2013-02-07 00:14:00,
2013-02-06 19:19:00,32.6,24.2,30.29,NE,42,0.0,0.0,71,0.00,,,0.00,0.00,VWS V14.01,2013-02-07 00:19:00,
2013-02-06 19:24:00,32.5,24.2,30.29,NE,42,0.0,0.0,71,0.00,,,0.00,0.00,VWS V14.01,2013-02-07 00:24:00,
2013-02-06 19:29:00,32.3,24.3,30.29,NE,42,0.0,1.0,72,0.00,,,0.00,0.00,VWS V14.01,2013-02-07 00:29:00,
2013-02-06 19:35:00,32.0,24.0,30.30,NE,42,0.0,0.0,72,0.00,,,0.00,0.00,VWS V14.01,2013-02-07 00:35:00,
2013-02-06 19:40:00,32.0,24.0,30.30,NE,42,0.0,0.0,72,0.00,,,0.00,0.00,VWS V14.01,2013-02-07 00:40:00,
2013-02-06 19:45:00,31.9,24.2,30.30,NE,42,1.0,1.0,73,0.00,,,0.00,0.00,VWS V14.01,2013-02-07 00:45:00,
2013-02-06 19:50:00,31.8,24.1,30.30,NE,42,0.0,1.0,73,0.00,,,0.00,0.00,VWS V14.01,2013-02-07 00:50:00,
2013-02-06 19:55:00,31.7,24.0,30.30,NNE,18,0.0,2.0,73,0.00,,,0.00,0.00,VWS V14.01,2013-02-07 00:55:00,
2013-02-06 20:00:00,31.8,24.1,30.30,NNE,19,0.0,0.0,73,0.00,,,0.00,0.00,VWS V14.01,2013-02-07 01:00:00,
2013-02-06 20:05:00,31.9,24.2,30.30,NNE,19,0.0,0.0,73,0.00,,,0.00,0.00,VWS V14.01,2013-02-07 01:05:00,
2013-02-06 20:10:00,31.8,24.1,30.30,NNE,19,0.0,0.0,73,0.00,,,0.00,0.00,VWS V14.01,2013-02-07 01:10:00,
2013-02-06 20:16:00,31.7,24.0,30.31,NNE,19,0.0,0.0,73,0.00,,,0.00,0.00,VWS V14.01,2013-02-07 01:16:00,
2013-02-06 20:21:00,31.5,23.9,30.31,NNE,19,0.0,0.0,73,0.00,,,0.00,0.00,VWS V14.01,2013-02-07 01:21:00,
2013-02-06 20:26:00,31.3,23.7,30.30,NNE,19,0.0,0.0,73,0.00,,,0.00,0.00,VWS V14.01,2013-02-07 01:26:00,
2013-02-06 20:31:00,30.8,23.5,30.30,NNE,19,0.0,0.0,74,0.00,,,0.00,0.00,VWS V14.01,2013-02-07 01:31:00,
2013-02-06 20:36:00,30.5,23.5,30.31,NNE,19,0.0,0.0,75,0.00,,,0.00,0.00,VWS V14.01,2013-02-07 01:36:00,
2013-02-06 20:41:00,30.4,23.4,30.31,NNE,19,0.0,0.0,75,0.00,,,0.00,0.00,VWS V14.01,2013-02-07 01:41:00,
2013-02-06 20:46:00,30.2,23.2,30.31,NNE,19,0.0,0.0,75,0.00,,,0.00,0.00,VWS V14.01,2013-02-07 01:46:00,
2013-02-06 20:51:00,29.8,22.9,30.31,NNE,20,0.0,0.0,75,0.00,,,0.00,0.00,VWS V14.01,2013-02-07 01:51:00,
2013-02-06 20:57:00,29.4,22.8,30.31,NNE,19,0.0,1.0,76,0.00,,,0.00,0.00,VWS V14.01,2013-02-07 01:57:00,
2013-02-06 21:02:00,29.5,23.2,30.31,NNE,20,1.0,2.0,77,0.00,,,0.00,0.00,VWS V14.01,2013-02-07 02:02:00,
2013-02-06 21:07:00,29.4,23.1,30.30,North,349,2.0,4.0,77,0.00,,,0.00,0.00,VWS V14.01,2013-02-07 02:07:00,
2013-02-06 21:12:00,29.6,23.3,30.31,NNE,29,0.0,3.0,77,0.00,,,0.00,0.00,VWS V14.01,2013-02-07 02:12:00,
2013-02-06 21:17:00,29.7,23.4,30.32,NNE,29,0.0,0.0,77,0.00,,,0.00,0.00,VWS V14.01,2013-02-07 02:17:00,
2013-02-06 21:22:00,29.8,23.2,30.32,NNE,29,0.0,2.0,76,0.00,,,0.00,0.00,VWS V14.01,2013-02-07 02:22:00,
2013-02-06 21:27:00,29.8,23.2,30.32,NNE,29,0.0,0.0,76,0.00,,,0.00,0.00,VWS V14.01,2013-02-07 02:27:00,
2013-02-06 21:32:00,29.7,23.1,30.32,NNE,29,0.0,0.0,76,0.00,,,0.00,0.00,VWS V14.01,2013-02-07 02:32:00,
2013-02-06 21:37:00,29.7,23.1,30.32,NNE,32,0.0,2.0,76,0.00,,,0.00,0.00,VWS V14.01,2013-02-07 02:37:00,
2013-02-06 21:43:00,29.5,22.9,30.32,NNE,32,0.0,1.0,76,0.00,,,0.00,0.00,VWS V14.01,2013-02-07 02:43:00,
2013-02-06 21:48:00,29.3,22.7,30.32,NE,38,0.0,1.0,76,0.00,,,0.00,0.00,VWS V14.01,2013-02-07 02:48:00,
2013-02-06 21:53:00,29.1,22.5,30.32,NE,39,0.0,0.0,76,0.00,,,0.00,0.00,VWS V14.01,2013-02-07 02:53:00,
2013-02-06 21:58:00,29.0,22.4,30.32,NE,39,0.0,0.0,76,0.00,,,0.00,0.00,VWS V14.01,2013-02-07 02:58:00,
2013-02-06 22:03:00,28.8,22.2,30.32,NE,40,0.0,0.0,76,0.00,,,0.00,0.00,VWS V14.01,2013-02-07 03:03:00,
2013-02-06 22:08:00,28.7,22.1,30.32,NE,38,0.0,0.0,76,0.00,,,0.00,0.00,VWS V14.01,2013-02-07 03:08:00,
2013-02-06 22:13:00,28.5,21.9,30.32,NE,39,0.0,0.0,76,0.00,,,0.00,0.00,VWS V14.01,2013-02-07 03:13:00,
2013-02-06 22:18:00,28.2,21.9,30.32,NE,39,0.0,1.0,77,0.00,,,0.00,0.00,VWS V14.01,2013-02-07 03:18:00,
2013-02-06 22:23:00,28.2,21.9,30.33,NNE,29,0.0,3.0,77,0.00,,,0.00,0.00,VWS V14.01,2013-02-07 03:23:00,
2013-02-06 22:29:00,28.3,22.0,30.32,NNE,29,0.0,0.0,77,0.00,,,0.00,0.00,VWS V14.01,2013-02-07 03:29:00,
2013-02-06 22:34:00,28.3,22.0,30.32,NNE,29,0.0,0.0,77,0.00,,,0.00,0.00,VWS V14.01,2013-02-07 03:34:00,
2013-02-06 22:39:00,28.3,22.0,30.32,NNE,29,0.0,0.0,77,0.00,,,0.00,0.00,VWS V14.01,2013-02-07 03:39:00,
2013-02-06 22:44:00,28.3,22.0,30.32,NE,47,0.0,1.0,77,0.00,,,0.00,0.00,VWS V14.01,2013-02-07 03:44:00,
2013-02-06 22:49:00,28.0,21.7,30.33,NE,47,0.0,0.0,77,0.00,,,0.00,0.00,VWS V14.01,2013-02-07 03:49:00,
2013-02-06 22:54:00,27.9,21.6,30.33,NE,47,0.0,0.0,77,0.00,,,0.00,0.00,VWS V14.01,2013-02-07 03:54:00,
2013-02-06 22:59:00,27.8,21.5,30.32,NE,47,0.0,0.0,77,0.00,,,0.00,0.00,VWS V14.01,2013-02-07 03:59:00,
2013-02-06 23:04:00,27.6,21.4,30.32,NE,47,0.0,0.0,77,0.00,,,0.00,0.00,VWS V14.01,2013-02-07 04:04:00,
2013-02-06 23:09:00,27.5,21.5,30.33,NE,46,0.0,0.0,78,0.00,,,0.00,0.00,VWS V14.01,2013-02-07 04:09:00,
2013-02-06 23:14:00,27.3,21.1,30.32,NE,47,0.0,0.0,77,0.00,,,0.00,0.00,VWS V14.01,2013-02-07 04:14:00,
2013-02-06 23:19:00,27.2,21.3,30.32,NE,47,0.0,0.0,78,0.00,,,0.00,0.00,VWS V14.01,2013-02-07 04:19:00,
2013-02-06 23:25:00,27.2,21.3,30.32,NE,47,0.0,0.0,78,0.00,,,0.00,0.00,VWS V14.01,2013-02-07 04:25:00,
2013-02-06 23:30:00,27.1,21.2,30.31,NE,46,0.0,1.0,78,0.00,,,0.00,0.00,VWS V14.01,2013-02-07 04:30:00,
2013-02-06 23:35:00,27.1,21.2,30.31,NE,47,0.0,1.0,78,0.00,,,0.00,0.00,VWS V14.01,2013-02-07 04:35:00,
2013-02-06 23:40:00,27.2,21.3,30.31,NE,46,0.0,1.0,78,0.00,,,0.00,0.00,VWS V14.01,2013-02-07 04:40:00,
2013-02-06 23:45:00,27.4,21.5,30.31,NNE,28,1.0,3.0,78,0.00,,,0.00,0.00,VWS V14.01,2013-02-07 04:45:00,
2013-02-06 23:50:00,27.5,21.5,30.31,North,9,2.0,3.0,78,0.00,,,0.00,0.00,VWS V14.01,2013-02-07 04:50:00,
2013-02-06 23:55:00,27.8,21.5,30.31,NNE,15,0.0,0.0,77,0.00,,,0.00,0.00,VWS V14.01,2013-02-07 04:55:00,